User: anonymous   Login
Location: Unspecified
(0.0000°N, 0.0000°E)
Time: 17:06:59
(UTC+00:00)
Language:

SICH 2 - Orbit

View from above orbital plane
View from above orbital plane
View from above satellite
View from above satellite

Ground track
Ground track

The orbit data is extracted from the following two-line orbital elements,

1 37794U 11044G   17265.19625542  .00000058  00000-0  20809-4 0  9991
2 37794  98.0660 339.1747 0013312 158.7801 281.3354 14.61715383325279
Epoch (UTC): 22 September 2017 04:42:36
Eccentricity: 0.0013312
inclination: 98.0660°
perigee height: 678 km
apogee height: 697 km
right ascension of ascending node: 339.1747°
argument of perigee: 158.7801°
revolutions per day: 14.61715383
mean anomaly at epoch: 281.3354°
orbit number at epoch: 32527

The dashed part of the orbit path shows where the satellite is in the earth's shadow,  

DLR